User: anonymous   Login
Location: Napier
(39.4830°S, 176.9170°E)
Time: 16:04:56
(UTC+13:00)
Language:

SPOT 1/Viking Rocket - Orbit

View from above orbital plane
View from above orbital plane
View from above satellite
View from above satellite

Ground track
Ground track

The orbit data is extracted from the following two-line orbital elements,

1 16615U 86019C   19081.18217383  .00000018  00000-0  23044-4 0  9991
2 16615  98.5315 150.5233 0010750 313.4393  70.5939 14.31745816731509
Epoch (UTC): 22 March 2019 04:22:19
Eccentricity: 0.0010750
inclination: 98.5315°
perigee height: 778 km
apogee height: 793 km
right ascension of ascending node: 150.5233°
argument of perigee: 313.4393°
revolutions per day: 14.31745816
mean anomaly at epoch: 70.5939°
orbit number at epoch: 73150

The dashed part of the orbit path shows where the satellite is in the earth's shadow,  

DLR